Precipitable_Water
1.32 1.25 1.09 0.77 0.74 0.76 0.80 0.88 0.93 0.96 0.98 0.99 0.98 0.97 0.95 0.94 0.91 0.88 0.84 0.80 0.76 0.74 0.73 0.70 0.68 0.60 0.48 0.29 0.39 0.68 0.67 0.66 0.68 0.63 0.58 0.59 0.57 0.55 0.47 0.49 0.53 0.49 0.47 0.48 0.47 0.43 0.46
1.40 1.33 1.27 1.18 1.05 0.85 0.74 0.77 0.79 0.83 0.86 0.90 0.91 0.94 0.92 0.91 0.89 0.86 0.83 0.79 0.74 0.70 0.71 0.69 0.67 0.65 0.47 0.27 0.55 0.68 0.64 0.59 0.59 0.60 0.59 0.59 0.57 0.58 0.52 0.51 0.50 0.56 0.55 0.52 0.50 0.48 0.46
1.45 1.40 1.34 1.31 1.34 1.29 1.13 0.93 0.77 0.75 0.76 0.76 0.80 0.83 0.85 0.83 0.82 0.82 0.79 0.75 0.72 0.67 0.65 0.64 0.65 0.59 0.44 0.33 0.56 0.62 0.64 0.57 0.60 0.60 0.54 0.59 0.61 0.55 0.55 0.48 0.54 0.53 0.47 0.52 0.52 0.51 0.51
1.48 1.47 1.40 1.37 1.36 1.37 1.32 1.28 1.14 0.89 0.76 0.74 0.73 0.71 0.72 0.73 0.73 0.73 0.71 0.68 0.63 0.62 0.61 0.65 0.67 0.56 0.32 0.52 0.64 0.57 0.62 0.58 0.61 0.64 0.60 0.62 0.64 0.56 0.54 0.57 0.51 0.45 0.45 0.37 0.49 0.55 0.55
1.40 1.43 1.43 1.39 1.38 1.39 1.41 1.39 1.32 1.27 1.10 0.84 0.78 0.75 0.74 0.70 0.67 0.63 0.64 0.62 0.57 0.58 0.66 0.72 0.60 0.51 0.28 0.55 0.48 0.64 0.62 0.54 0.59 0.65 0.66 0.65 0.61 0.52 0.52 0.45 0.40 0.41 0.33 0.35 0.44 0.59 0.56
1.24 1.34 1.38 1.41 1.40 1.39 1.40 1.38 1.33 1.39 1.37 1.20 0.93 0.84 0.81 0.78 0.73 0.71 0.71 0.63 0.61 0.66 0.69 0.73 0.67 0.42 0.38 0.37 0.54 0.58 0.63 0.61 0.55 0.56 0.54 0.55 0.53 0.43 0.45 0.41 0.29 0.33 0.37 0.39 0.41 0.56 0.57
1.08 1.12 1.28 1.32 1.37 1.39 1.35 1.38 1.32 1.38 1.40 1.39 1.36 1.09 0.95 0.94 0.86 0.82 0.72 0.61 0.52 0.46 0.53 0.39 0.41 0.39 0.41 0.51 0.56 0.52 0.59 0.56 0.56 0.49 0.38 0.48 0.39 0.33 0.40 0.45 0.42 0.44 0.42 0.41 0.47 0.56 0.53
0.95 1.03 1.07 1.21 1.28 1.32 1.36 1.37 1.41 1.37 1.40 1.44 1.46 1.41 1.36 1.22 1.10 1.00 0.83 0.64 0.67 0.80 0.52 0.58 0.57 0.55 0.54 0.55 0.38 0.44 0.59 0.44 0.43 0.34 0.40 0.38 0.30 0.42 0.47 0.48 0.46 0.44 0.43 0.43 0.47 0.53 0.51
0.81 0.87 0.93 1.01 1.11 1.15 1.24 1.31 1.37 1.35 1.39 1.41 1.43 1.47 1.45 1.43 1.27 1.10 0.87 0.80 0.97 0.94 0.63 0.58 0.63 0.57 0.52 0.56 0.42 0.35 0.47 0.50 0.39 0.34 0.33 0.31 0.34 0.46 0.47 0.46 0.44 0.44 0.42 0.44 0.42 0.47 0.52
0.77 0.78 0.80 0.87 0.95 1.02 1.11 1.23 1.20 1.21 1.31 1.35 1.40 1.45 1.50 1.50 1.20 1.14 0.91 1.10 1.13 1.08 0.58 0.54 0.53 0.55 0.60 0.56 0.42 0.51 0.45 0.45 0.46 0.36 0.37 0.36 0.39 0.40 0.43 0.42 0.47 0.38 0.50 0.48 0.45 0.44 0.36
0.76 0.77 0.79 0.82 0.81 0.78 0.91 1.02 1.07 1.09 1.10 1.17 1.30 1.40 1.48 1.45 1.16 1.04 1.13 1.22 1.16 1.00 0.37 0.53 0.52 0.75 0.67 0.49 0.50 0.51 0.59 0.48 0.36 0.37 0.39 0.33 0.36 0.37 0.37 0.41 0.48 0.43 0.51 0.49 0.48 0.45 0.45
0.69 0.70 0.73 0.76 0.79 0.75 0.72 0.82 0.88 0.96 1.01 1.05 1.13 1.26 1.40 1.35 1.30 1.26 1.31 1.30 1.07 0.55 0.35 0.44 0.56 0.55 0.53 0.55 0.51 0.56 0.57 0.62 0.57 0.43 0.43 0.39 0.48 0.45 0.42 0.48 0.51 0.52 0.49 0.50 0.50 0.47 0.35
0.70 0.68 0.67 0.66 0.71 0.71 0.67 0.70 0.72 0.70 0.82 0.94 0.92 1.01 1.23 1.28 1.06 1.32 1.25 1.05 0.58 0.40 0.53 0.41 0.44 0.51 0.47 0.45 0.46 0.50 0.48 0.46 0.41 0.34 0.33 0.39 0.38 0.42 0.44 0.41 0.50 0.49 0.46 0.35 0.33 0.32 0.32
0.66 0.64 0.59 0.57 0.59 0.61 0.64 0.63 0.67 0.64 0.61 0.70 0.72 0.81 1.08 1.13 1.25 1.26 1.07 0.72 0.38 0.43 0.43 0.47 0.45 0.45 0.43 0.45 0.41 0.41 0.43 0.41 0.47 0.44 0.37 0.32 0.29 0.46 0.54 0.48 0.44 0.46 0.47 0.39 0.29 0.29 0.34
0.61 0.60 0.57 0.48 0.51 0.55 0.57 0.58 0.60 0.62 0.58 0.61 0.72 0.65 0.79 1.00 1.16 1.09 0.75 0.46 0.35 0.36 0.43 0.40 0.40 0.35 0.34 0.40 0.37 0.35 0.39 0.43 0.48 0.49 0.36 0.34 0.36 0.54 0.56 0.59 0.58 0.49 0.44 0.55 0.44 0.45 0.36
0.63 0.62 0.57 0.52 0.49 0.53 0.58 0.57 0.54 0.58 0.57 0.57 0.51 0.54 0.60 0.92 1.17 0.96 0.68 0.46 0.46 0.53 0.54 0.48 0.31 0.34 0.30 0.37 0.35 0.35 0.35 0.48 0.47 0.51 0.53 0.46 0.35 0.50 0.56 0.59 0.60 0.54 0.58 0.42 0.45 0.32 0.29
0.65 0.61 0.60 0.58 0.49 0.48 0.52 0.59 0.55 0.55 0.60 0.56 0.44 0.35 0.52 0.79 1.00 0.67 0.47 0.49 0.55 0.57 0.57 0.46 0.37 0.34 0.39 0.39 0.42 0.39 0.41 0.51 0.59 0.54 0.53 0.49 0.47 0.44 0.55 0.51 0.50 0.53 0.50 0.54 0.54 0.51 0.36
0.68 0.66 0.65 0.56 0.58 0.52 0.46 0.54 0.60 0.56 0.63 0.51 0.41 0.22 0.55 0.73 0.46 0.57 0.44 0.57 0.61 0.54 0.56 0.48 0.48 0.47 0.44 0.43 0.36 0.39 0.46 0.56 0.69 0.64 0.50 0.61 0.58 0.45 0.52 0.68 0.73 0.65 0.57 0.57 0.45 0.40 0.44
0.61 0.64 0.65 0.64 0.54 0.55 0.51 0.51 0.62 0.60 0.60 0.47 0.33 0.31 0.65 0.68 0.33 0.36 0.49 0.53 0.53 0.46 0.47 0.46 0.45 0.49 0.50 0.42 0.36 0.41 0.49 0.64 0.67 0.63 0.58 0.65 0.57 0.43 0.46 0.57 0.65 0.59 0.61 0.57 0.54 0.50 0.38
0.56 0.60 0.63 0.63 0.57 0.52 0.54 0.53 0.64 0.67 0.60 0.50 0.36 0.22 0.38 0.57 0.53 0.45 0.42 0.41 0.44 0.58 0.49 0.48 0.50 0.51 0.49 0.45 0.47 0.40 0.47 0.58 0.64 0.65 0.70 0.69 0.55 0.47 0.39 0.44 0.54 0.51 0.57 0.61 0.56 0.43 0.41
0.59 0.59 0.59 0.62 0.62 0.53 0.55 0.54 0.66 0.72 0.63 0.53 0.38 0.29 0.36 0.29 0.37 0.44 0.52 0.49 0.42 0.40 0.49 0.56 0.50 0.45 0.47 0.39 0.39 0.41 0.47 0.51 0.64 0.69 0.66 0.62 0.45 0.48 0.51 0.57 0.56 0.53 0.51 0.53 0.49 0.50 0.43
0.54 0.55 0.54 0.54 0.57 0.54 0.52 0.56 0.67 0.74 0.71 0.50 0.32 0.30 0.36 0.37 0.42 0.40 0.42 0.46 0.45 0.50 0.50 0.45 0.43 0.46 0.52 0.41 0.39 0.36 0.45 0.51 0.49 0.58 0.56 0.60 0.42 0.46 0.39 0.46 0.51 0.46 0.49 0.48 0.50 0.50 0.48
0.49 0.50 0.52 0.53 0.59 0.56 0.55 0.59 0.65 0.73 0.74 0.50 0.47 0.46 0.43 0.30 0.38 0.38 0.36 0.36 0.43 0.53 0.53 0.55 0.52 0.47 0.45 0.48 0.55 0.56 0.60 0.59 0.55 0.47 0.42 0.44 0.40 0.35 0.26 0.41 0.41 0.31 0.38 0.42 0.46 0.49 0.49
0.48 0.50 0.52 0.54 0.59 0.59 0.59 0.60 0.65 0.72 0.72 0.61 0.50 0.45 0.35 0.26 0.30 0.35 0.43 0.49 0.38 0.36 0.38 0.45 0.52 0.48 0.57 0.70 0.65 0.58 0.55 0.51 0.50 0.50 0.53 0.44 0.41 0.40 0.28 0.34 0.18 0.26 0.41 0.43 0.41 0.45 0.52
0.51 0.49 0.50 0.52 0.54 0.55 0.57 0.59 0.63 0.70 0.77 0.65 0.60 0.45 0.37 0.27 0.35 0.34 0.38 0.38 0.45 0.51 0.50 0.51 0.60 0.62 0.62 0.55 0.43 0.37 0.37 0.38 0.39 0.45 0.48 0.49 0.42 0.33 0.27 0.27 0.30 0.32 0.39 0.42 0.41 0.40 0.49
0.48 0.50 0.50 0.53 0.53 0.54 0.54 0.57 0.61 0.67 0.76 0.72 0.65 0.60 0.44 0.34 0.30 0.44 0.39 0.39 0.36 0.39 0.43 0.46 0.59 0.66 0.66 0.53 0.43 0.31 0.26 0.30 0.29 0.35 0.44 0.43 0.47 0.39 0.32 0.26 0.21 0.31 0.43 0.47 0.51 0.35 0.49
0.52 0.52 0.50 0.51 0.52 0.55 0.53 0.55 0.58 0.64 0.73 0.74 0.66 0.67 0.51 0.37 0.44 0.43 0.40 0.41 0.48 0.43 0.38 0.44 0.48 0.56 0.65 0.46 0.39 0.32 0.29 0.34 0.23 0.22 0.24 0.29 0.33 0.31 0.32 0.29 0.35 0.48 0.49 0.55 0.39 0.39 0.48
0.54 0.55 0.54 0.52 0.51 0.54 0.54 0.53 0.54 0.60 0.67 0.73 0.69 0.71 0.55 0.42 0.42 0.51 0.54 0.48 0.50 0.50 0.39 0.45 0.47 0.52 0.52 0.39 0.36 0.33 0.31 0.32 0.30 0.33 0.30 0.31 0.32 0.32 0.36 0.30 0.24 0.55 0.51 0.45 0.53 0.55 0.56
0.57 0.58 0.57 0.56 0.54 0.52 0.55 0.54 0.55 0.57 0.65 0.73 0.64 0.74 0.70 0.51 0.43 0.51 0.61 0.63 0.62 0.61 0.52 0.53 0.49 0.49 0.54 0.45 0.41 0.35 0.28 0.33 0.30 0.24 0.39 0.30 0.41 0.37 0.42 0.40 0.57 0.64 0.60 0.65 0.61 0.56 0.56
Wind_Speed
43 43 41 41 40 40 39 38 37 36 35 34 32 31 29 28 27 26 25 25 25 24 23 23 22 20 17 15 15 14 13 12 10 9 8 8 8 8 9 9 10 11 13 14 17 19 19
43 43 43 42 40 39 39 39 39 37 36 35 34 33 32 31 30 29 28 28 27 27 26 25 24 22 18 19 17 15 13 12 11 11 10 9 10 10 11 12 11 12 15 17 18 20 21
42 42 42 43 43 42 40 39 38 38 37 36 35 34 33 32 31 31 30 30 30 29 28 28 26 23 21 21 18 17 16 15 13 12 12 12 12 11 12 13 13 13 15 17 17 14 15
39 41 41 39 41 42 42 41 39 38 37 36 35 35 34 33 32 31 31 31 31 30 30 27 25 23 23 21 20 20 18 17 16 16 15 15 15 14 14 15 14 15 13 13 11 13 13
42 42 41 41 39 38 39 40 40 39 37 36 35 34 33 32 31 31 30 30 31 30 27 25 24 23 24 22 21 21 21 19 17 17 17 17 16 15 15 13 14 12 12 12 13 12 13
46 46 43 44 41 39 37 37 37 37 37 36 35 34 33 32 30 30 30 30 29 26 25 24 24 22 22 19 19 19 20 20 19 18 17 17 16 15 15 13 14 12 11 12 13 14 15
42 44 44 45 47 43 42 39 36 36 36 36 34 32 31 30 29 28 26 25 24 23 24 24 25 25 24 23 23 20 20 20 20 18 19 18 17 17 18 16 15 13 14 15 16 17 16
38 40 43 41 43 44 43 44 40 37 35 34 35 33 31 29 27 26 24 23 24 26 27 28 30 29 28 25 25 23 22 21 20 21 19 19 21 21 18 17 17 17 17 18 16 16 14
40 38 39 41 40 40 41 41 43 43 37 35 33 33 32 29 27 26 24 24 24 24 26 27 26 26 25 25 26 25 24 23 22 22 21 21 19 13 17 19 18 18 17 17 18 15 16
40 39 37 37 39 39 40 38 39 39 41 37 35 34 34 32 29 27 24 22 21 22 24 26 24 22 20 21 22 24 27 24 23 23 21 23 21 24 22 21 18 20 18 18 18 16 16
39 38 37 37 37 39 38 38 35 37 37 38 37 36 35 32 29 27 24 24 22 19 18 16 16 16 15 14 15 15 19 22 24 22 20 22 19 17 19 20 19 22 18 18 18 18 18
40 39 38 37 35 36 37 37 35 35 35 35 35 33 33 32 29 27 24 20 19 15 19 14 12 12 12 12 12 11 12 15 19 22 23 24 22 21 20 20 19 19 18 17 17 17 18
42 40 39 38 37 35 35 36 34 34 33 34 33 33 33 31 28 26 22 18 17 18 15 14 14 13 12 12 12 12 11 12 11 12 16 19 22 23 23 23 21 18 16 18 19 17 19
44 42 40 39 38 36 34 33 33 32 32 32 33 32 31 31 29 27 25 20 23 20 21 16 13 13 13 11 14 13 12 13 14 11 12 13 15 14 16 19 19 18 18 17 18 18 20
44 43 41 39 38 37 36 34 33 31 30 30 29 31 32 31 30 27 26 27 25 23 20 18 17 16 16 17 15 13 14 15 16 15 14 13 15 14 12 16 15 16 16 17 16 19 20
46 44 43 41 39 37 36 35 33 31 30 29 27 27 30 30 30 27 27 32 26 22 18 17 17 14 13 14 14 14 13 12 12 14 15 14 16 15 16 15 14 15 15 15 16 18 21
47 46 44 42 41 39 37 36 35 33 31 29 27 26 25 30 30 30 31 28 29 24 18 17 17 16 15 13 13 14 14 13 13 14 14 16 15 17 15 15 16 17 16 16 17 17 19
47 46 45 44 43 41 39 38 37 35 32 30 27 25 26 30 31 29 34 27 23 25 22 21 18 18 17 16 16 16 15 14 15 15 13 14 14 13 15 16 17 17 16 17 16 20 22
48 47 46 45 44 43 41 40 39 38 35 30 28 27 26 31 31 33 28 27 26 24 22 23 23 22 19 18 17 17 16 16 16 14 14 14 14 14 16 12 13 17 18 20 18 18 21
49 48 47 46 45 44 43 42 41 41 39 34 29 27 28 32 32 30 29 33 30 25 24 24 22 21 20 19 18 18 17 17 17 16 15 16 16 17 19 19 18 17 21 22 19 19 24
49 49 48 47 47 46 45 43 44 43 42 38 33 31 29 30 35 33 30 25 29 26 27 24 22 22 19 18 18 19 19 19 18 18 19 18 19 20 21 22 21 24 24 26 27 31 27
52 51 50 49 49 48 47 46 46 45 44 42 36 32 31 30 30 35 34 28 32 30 25 25 22 20 23 22 21 20 19 19 21 19 20 20 22 21 24 25 26 29 31 30 29 31 33
55 53 52 52 50 49 49 48 48 48 47 41 41 36 31 32 29 31 35 37 30 25 24 23 23 22 23 22 22 24 24 24 25 23 23 22 20 21 25 23 25 31 30 30 30 27 26
57 56 54 54 52 51 50 50 50 50 51 43 41 38 34 31 31 30 28 28 31 33 29 25 25 22 22 20 21 22 23 25 24 24 22 20 20 21 24 21 26 26 24 26 29 30 29
58 57 57 56 55 54 52 51 51 51 52 47 42 42 35 34 30 32 32 28 30 28 26 26 24 23 22 22 21 20 20 20 21 20 22 21 20 22 22 24 32 31 27 24 23 28 26
59 58 58 57 56 55 55 53 52 52 52 49 46 43 40 33 35 28 31 31 29 28 26 27 26 24 21 19 20 21 21 20 20 18 17 16 17 19 19 22 23 22 22 23 22 28 24
60 59 59 58 58 57 56 55 53 53 53 51 46 46 42 38 34 32 30 31 29 28 26 26 25 23 24 23 22 22 24 22 21 19 17 17 19 22 23 22 26 23 21 21 20 25 22
61 60 60 59 58 58 57 57 55 54 54 52 46 49 44 40 36 33 31 30 29 29 26 26 24 26 23 24 23 23 23 22 22 21 19 18 18 18 19 19 23 20 20 20 22 24 23
60 60 60 60 60 59 58 57 56 56 55 54 46 48 46 41 37 40 31 31 30 29 28 28 25 23 24 22 24 22 22 22 21 21 19 20 20 19 19 19 20 22 22 24 25 23 24
Wind_Direction
238 238 239 239 239 240 241 242 244 245 247 249 251 254 257 260 264 268 272 276 280 282 286 290 293 294 290 285 279 282 287 289 288 282 280 281 286 288 289 292 293 279 277 272 268 267 267
239 239 238 238 239 240 241 242 244 245 247 249 251 253 256 260 263 266 270 274 277 279 282 285 287 285 281 279 277 274 279 280 280 277 273 274 280 283 288 289 289 288 286 281 277 272 270
237 237 238 238 239 240 241 242 243 245 247 248 250 253 256 259 262 266 269 272 275 277 279 281 280 275 274 271 271 270 270 273 273 274 272 271 277 281 289 297 294 294 299 295 279 274 276
234 236 237 238 239 240 240 242 243 244 246 248 250 252 255 258 261 265 268 272 274 276 277 276 274 271 267 268 267 267 265 268 267 270 272 271 275 277 282 289 296 300 302 302 284 286 283
237 236 236 237 237 239 240 241 242 244 245 247 249 251 254 257 260 264 268 271 273 274 272 271 272 269 267 267 264 264 259 262 264 269 270 269 272 276 283 284 294 300 290 298 296 291 287
237 238 238 236 238 238 239 240 241 242 244 245 248 250 252 255 259 263 268 271 271 268 268 269 269 268 263 264 264 263 259 257 263 269 272 267 272 272 280 276 276 282 285 291 290 288 300
238 238 236 239 237 239 239 239 240 241 243 244 245 247 250 253 257 262 267 268 266 266 267 263 266 263 265 265 265 260 258 255 260 264 263 270 269 264 263 265 272 280 286 288 287 288 291
237 237 236 236 236 237 239 237 239 242 242 243 242 245 249 251 254 259 262 263 264 267 269 266 265 265 264 264 263 259 255 254 255 257 263 268 266 265 263 265 268 273 281 285 290 291 287
235 237 237 235 235 237 237 237 239 240 241 241 241 243 246 248 253 256 259 262 267 269 269 269 264 264 262 257 257 257 249 254 256 256 256 256 262 274 260 264 267 268 270 277 279 292 290
234 235 235 236 235 234 234 234 237 239 238 239 242 245 245 247 252 252 254 260 266 271 273 268 262 263 263 258 262 255 248 250 257 256 255 262 265 264 263 263 261 270 264 270 278 283 286
232 233 233 235 235 234 234 232 236 239 237 239 241 243 243 242 246 248 253 259 263 265 271 263 259 252 252 254 269 269 252 251 249 252 255 263 267 263 261 263 257 263 267 269 275 277 286
232 232 233 234 234 234 233 232 236 234 235 235 235 239 239 239 242 246 247 249 248 251 254 263 253 243 242 259 268 269 263 257 254 253 258 260 263 263 260 261 261 269 270 278 281 279 277
230 232 232 233 234 233 233 232 234 232 235 233 234 236 236 234 238 237 232 232 237 237 250 254 249 250 252 258 268 263 260 254 254 259 264 267 263 263 258 262 262 262 269 277 280 279 274
230 231 231 232 232 232 232 231 231 232 233 232 232 232 231 233 232 231 225 226 234 241 241 253 252 252 247 247 264 268 260 257 258 263 269 271 277 274 268 260 260 261 258 260 266 272 276
228 228 229 230 230 231 231 230 229 230 230 231 232 231 231 231 227 225 224 227 235 236 242 244 248 252 254 260 258 263 259 258 252 248 257 265 270 271 274 267 264 263 263 267 270 280 283
228 228 228 228 228 228 229 229 229 229 229 228 229 230 230 223 219 221 223 232 232 234 238 240 239 247 251 262 259 258 255 265 260 250 258 273 274 273 271 268 277 268 265 273 279 284 282
227 227 227 227 227 227 227 227 226 227 226 226 228 228 228 218 217 223 229 231 229 231 236 244 248 252 252 257 262 264 261 265 271 273 261 268 274 273 270 275 266 273 270 274 277 274 279
226 226 226 226 226 226 227 226 225 224 223 223 225 228 225 214 219 227 230 228 229 234 239 243 247 248 254 263 264 261 263 265 278 272 270 272 268 273 273 282 278 272 269 272 273 274 276
226 226 225 225 225 226 226 225 223 222 220 221 225 227 225 218 226 226 230 230 235 236 237 244 247 249 251 257 260 256 264 267 277 272 265 265 268 278 283 282 276 280 280 275 279 282 274
225 225 225 225 225 225 224 224 222 220 219 220 224 226 226 224 226 229 231 232 234 237 239 241 246 247 247 249 252 262 264 268 272 268 273 271 265 264 268 273 277 279 291 287 277 278 287
225 226 225 225 225 224 224 223 221 220 218 219 224 227 226 228 229 231 231 235 230 235 235 235 242 243 243 249 258 257 264 265 267 268 269 270 269 271 274 276 277 276 271 275 271 273 280
227 227 227 227 225 224 223 222 221 219 218 221 224 226 227 232 229 227 229 231 229 230 233 239 241 244 245 248 251 256 266 267 265 272 272 275 275 276 280 278 274 275 273 276 278 278 281
228 228 227 226 224 224 223 222 220 218 216 223 223 227 228 230 231 226 230 232 231 231 237 234 237 247 248 249 253 258 258 260 264 268 270 271 273 279 281 281 283 280 275 272 277 281 286
228 227 227 225 224 223 222 221 220 219 219 223 223 224 227 232 230 231 229 228 230 232 236 241 239 238 244 251 256 261 262 264 265 265 264 267 274 278 284 290 282 287 291 281 275 282 286
227 227 226 225 224 223 222 221 220 219 219 221 223 222 225 229 231 230 230 231 233 233 233 234 236 244 244 250 258 264 266 271 268 268 264 268 271 281 281 281 287 290 293 287 282 288 292
226 226 225 224 223 222 221 220 220 219 218 220 222 222 223 228 230 234 230 230 232 233 235 238 242 242 239 243 250 253 258 262 268 268 272 269 272 273 283 284 285 295 292 297 293 290 294
225 225 224 223 222 221 220 219 219 218 218 219 223 221 222 227 231 232 233 232 231 232 235 236 234 237 240 244 248 252 258 261 265 263 265 270 276 271 279 281 283 293 292 293 294 299 298
224 223 222 222 221 220 219 219 218 218 218 217 223 220 222 226 229 230 233 233 232 231 233 235 235 238 240 240 246 251 256 258 263 263 264 267 271 281 285 278 285 297 293 286 295 297 299
222 221 220 220 219 218 218 218 218 218 217 217 222 220 222 226 230 229 231 231 232 233 231 233 235 236 235 239 245 254 256 258 259 266 267 269 269 283 275 278 292 296 293 291 295 296 298